Temp
-6 -6 -6 -5 -5 -5 -5 -5 -5 -4 -4 -4 -4 -4 -4 -3 -3 -3 -3 -3 -3 -2 -3 -3 -3 -3 -3 -4 -4 -4 -4 -4 -4 -4 -4 -4 -4 -4 -4 -4 -4 -4 -4 -4 -4
-7 -6 -6 -6 -5 -5 -5 -5 -4 -4 -4 -4 -4 -4 -4 -3 -3 -4 -3 -3 -4 -3 -3 -3 -3 -3 -4 -4 -4 -4 -3 -4 -4 -4 -4 -4 -4 -4 -4 -4 -4 -4 -4 -4 -4
-7 -7 -6 -6 -6 -5 -5 -5 -5 -5 -5 -4 -4 -4 -4 -4 -3 -3 -3 -4 -4 -4 -3 -3 -3 -3 -3 -3 -4 -4 -4 -4 -4 -4 -4 -4 -4 -4 -4 -4 -4 -4 -4 -4 -4
-7 -7 -7 -7 -6 -6 -6 -6 -5 -5 -5 -5 -5 -4 -4 -4 -4 -4 -4 -4 -4 -4 -5 -3 -4 -4 -5 -4 -4 -4 -4 -3 -4 -4 -4 -4 -4 -4 -3 -4 -4 -4 -4 -4 -4
-7 -7 -7 -7 -6 -6 -6 -6 -6 -6 -6 -5 -5 -5 -4 -4 -4 -4 -4 -4 -4 -4 -4 -6 -4 -5 -4 -4 -5 -4 -4 -4 -4 -4 -3 -4 -4 -4 -4 -4 -4 -4 -3 -5 -4
-7 -7 -7 -7 -7 -7 -6 -6 -6 -6 -6 -6 -6 -5 -5 -4 -4 -4 -4 -4 -4 -4 -4 -5 -5 -5 -5 -5 -4 -4 -4 -4 -4 -3 -3 -3 -3 -4 -4 -4 -4 -4 -3 -4 -4
-7 -7 -7 -7 -6 -6 -6 -6 -6 -6 -6 -6 -6 -6 -6 -4 -5 -4 -4 -4 -4 -4 -4 -5 -5 -5 -5 -5 -5 -5 -4 -4 -4 -4 -4 -4 -4 -3 -4 -5 -5 -4 -4 -4 -5
-8 -7 -7 -7 -7 -6 -6 -6 -6 -6 -6 -6 -6 -6 -5 -6 -5 -5 -5 -5 -4 -4 -4 -4 -5 -5 -5 -5 -5 -5 -5 -4 -4 -5 -4 -4 -4 -3 -4 -4 -5 -4 -5 -4 -4
-8 -8 -8 -7 -7 -7 -7 -7 -6 -6 -6 -6 -6 -6 -5 -6 -5 -5 -5 -5 -5 -4 -4 -4 -5 -6 -6 -6 -6 -6 -6 -4 -5 -6 -4 -4 -4 -4 -4 -4 -4 -5 -4 -4 -4
-8 -8 -8 -8 -7 -7 -7 -7 -7 -7 -7 -6 -6 -6 -5 -5 -6 -6 -6 -6 -5 -5 -5 -4 -4 -5 -6 -6 -8 -7 -7 -5 -6 -5 -5 -5 -5 -4 -4 -4 -4 -4 -4 -5 -4
-8 -8 -8 -8 -8 -8 -7 -7 -7 -7 -7 -7 -7 -6 -6 -6 -6 -6 -6 -6 -6 -5 -5 -5 -5 -5 -5 -6 -8 -6 -7 -7 -7 -5 -5 -5 -5 -4 -4 -3 -4 -4 -4 -5 -5
-8 -8 -8 -8 -8 -8 -8 -8 -8 -7 -7 -7 -7 -7 -6 -6 -6 -6 -6 -6 -6 -6 -6 -5 -4 -5 -6 -8 -9 -7 -8 -7 -7 -6 -6 -7 -6 -5 -4 -4 -4 -4 -4 -4 -4
-9 -8 -8 -9 -9 -8 -8 -7 -7 -7 -7 -6 -7 -7 -6 -7 -7 -7 -7 -6 -6 -6 -6 -6 -5 -6 -6 -7 -9 -8 -8 -7 -7 -7 -6 -6 -6 -6 -5 -5 -4 -4 -4 -4 -4
-9 -9 -9 -9 -8 -8 -8 -8 -8 -7 -7 -5 -6 -7 -7 -7 -8 -8 -7 -7 -7 -6 -6 -6 -6 -6 -6 -6 -9 -9 -8 -8 -7 -8 -8 -7 -7 -6 -5 -5 -5 -4 -4 -4 -4
-9 -9 -9 -8 -8 -8 -8 -8 -8 -8 -8 -9 -8 -8 -8 -8 -8 -8 -8 -8 -7 -7 -7 -6 -6 -6 -6 -6 -8 -9 -8 -8 -8 -8 -8 -7 -7 -6 -6 -5 -5 -4 -4 -4 -5
-9 -9 -8 -8 -8 -9 -9 -9 -9 -9 -11 -11 -10 -11 -12 -11 -10 -9 -9 -8 -8 -8 -7 -7 -8 -7 -7 -8 -7 -8 -9 -8 -8 -8 -8 -7 -7 -6 -7 -5 -5 -5 -4 -3 -4
-9 -9 -9 -9 -9 -9 -9 -10 -10 -11 -11 -12 -12 -14 -14 -14 -13 -12 -10 -10 -9 -9 -8 -7 -7 -8 -8 -10 -9 -8 -10 -9 -9 -8 -8 -7 -7 -6 -6 -6 -7 -4 -4 -4 -4
-10 -10 -9 -9 -9 -9 -10 -10 -10 -11 -12 -13 -14 -14 -15 -16 -15 -15 -13 -12 -11 -10 -10 -9 -10 -8 -8 -8 -9 -9 -10 -9 -8 -7 -7 -7 -7 -7 -7 -8 -7 -6 -5 -5 -5
-10 -10 -10 -10 -10 -10 -10 -11 -12 -12 -12 -13 -14 -16 -16 -16 -16 -16 -16 -15 -14 -12 -11 -12 -11 -11 -11 -9 -8 -10 -9 -8 -8 -7 -7 -6 -7 -7 -7 -7 -8 -6 -6 -5 -6
-10 -11 -11 -11 -11 -10 -11 -11 -12 -12 -13 -14 -15 -15 -17 -17 -16 -16 -15 -15 -15 -15 -13 -13 -12 -12 -11 -12 -9 -10 -9 -10 -9 -8 -7 -6 -7 -7 -7 -7 -7 -8 -6 -6 -6
-10 -10 -10 -11 -11 -11 -12 -12 -12 -13 -14 -14 -15 -15 -16 -18 -17 -17 -16 -16 -16 -15 -15 -14 -14 -12 -11 -12 -10 -10 -11 -10 -9 -9 -8 -7 -7 -7 -8 -8 -8 -8 -7 -7 -7
-10 -10 -10 -11 -11 -12 -13 -13 -13 -13 -14 -15 -15 -16 -16 -16 -17 -18 -16 -15 -16 -15 -15 -13 -14 -13 -11 -12 -12 -12 -11 -11 -10 -10 -9 -8 -7 -7 -8 -8 -8 -8 -7 -7 -7
-10 -11 -11 -12 -12 -13 -13 -13 -13 -14 -14 -15 -16 -16 -17 -17 -17 -18 -17 -17 -17 -16 -15 -15 -15 -14 -13 -12 -13 -13 -12 -11 -11 -10 -9 -9 -8 -8 -8 -8 -8 -8 -7 -7 -8
-11 -11 -11 -12 -13 -14 -14 -14 -14 -14 -15 -15 -16 -17 -17 -17 -18 -18 -18 -18 -16 -16 -16 -15 -14 -15 -13 -12 -12 -13 -13 -12 -11 -11 -10 -9 -8 -9 -8 -8 -9 -8 -8 -8 -8
-12 -12 -12 -13 -13 -14 -14 -15 -15 -15 -15 -15 -16 -16 -18 -18 -18 -19 -19 -19 -17 -17 -17 -16 -15 -16 -15 -13 -13 -12 -13 -12 -12 -11 -10 -9 -9 -9 -9 -9 -9 -8 -8 -8 -8
-12 -12 -13 -13 -14 -15 -15 -15 -15 -15 -15 -16 -17 -17 -17 -18 -18 -18 -18 -18 -18 -18 -17 -17 -17 -15 -15 -15 -14 -13 -12 -13 -12 -12 -11 -10 -10 -9 -10 -10 -8 -8 -8 -8 -8
-12 -12 -13 -13 -14 -15 -15 -15 -15 -16 -16 -16 -17 -17 -17 -18 -18 -19 -18 -18 -18 -18 -17 -17 -16 -16 -15 -15 -14 -14 -13 -13 -12 -12 -12 -11 -11 -10 -11 -9 -9 -8 -8 -9 -8
Height
5870 5872 5875 5876 5878 5880 5881 5882 5883 5884 5885 5886 5888 5889 5891 5892 5893 5895 5897 5899 5899 5900 5903 5904 5905 5907 5908 5910 5911 5913 5913 5915 5916 5916 5917 5917 5916 5915 5914 5913 5912 5910 5910 5910 5907
5870 5871 5873 5874 5876 5878 5879 5880 5881 5881 5882 5884 5886 5887 5889 5890 5892 5893 5896 5898 5899 5899 5902 5904 5905 5907 5909 5910 5912 5913 5913 5916 5917 5917 5918 5918 5918 5917 5917 5916 5914 5913 5913 5913 5911
5869 5870 5871 5872 5874 5876 5877 5878 5879 5880 5880 5882 5883 5884 5887 5888 5890 5893 5894 5896 5898 5899 5901 5904 5906 5908 5909 5910 5911 5914 5915 5916 5917 5918 5919 5919 5919 5919 5918 5918 5916 5916 5916 5916 5916
5868 5869 5870 5872 5873 5874 5876 5876 5877 5878 5879 5880 5881 5882 5884 5886 5889 5890 5893 5895 5896 5898 5900 5902 5906 5910 5909 5910 5911 5914 5915 5916 5917 5918 5918 5919 5919 5919 5919 5919 5919 5918 5917 5918 5919
5867 5868 5869 5870 5872 5873 5874 5874 5875 5876 5877 5878 5879 5880 5882 5884 5886 5887 5889 5892 5894 5896 5898 5900 5904 5907 5909 5911 5913 5913 5914 5914 5917 5917 5918 5918 5919 5919 5919 5919 5920 5920 5919 5919 5921
5865 5867 5868 5869 5870 5871 5871 5872 5873 5875 5875 5876 5877 5878 5879 5882 5884 5886 5888 5890 5891 5893 5896 5898 5901 5904 5905 5911 5913 5912 5914 5915 5917 5917 5918 5919 5919 5918 5919 5919 5919 5920 5920 5920 5922
5862 5863 5864 5866 5867 5867 5869 5870 5870 5872 5873 5874 5875 5876 5877 5879 5880 5882 5885 5887 5889 5891 5893 5895 5898 5901 5903 5908 5911 5911 5915 5916 5918 5918 5918 5918 5918 5917 5918 5917 5918 5919 5920 5921 5922
5858 5859 5860 5861 5862 5864 5865 5866 5867 5868 5869 5870 5871 5872 5874 5876 5877 5879 5881 5884 5886 5888 5890 5892 5895 5900 5902 5906 5909 5912 5915 5916 5915 5917 5917 5917 5917 5917 5918 5918 5918 5919 5920 5921 5922
5855 5856 5857 5857 5858 5859 5859 5860 5861 5863 5864 5865 5867 5868 5870 5871 5875 5877 5878 5881 5882 5885 5888 5890 5892 5897 5900 5905 5908 5911 5916 5915 5901 5913 5916 5916 5916 5918 5918 5918 5918 5919 5920 5921 5923
5853 5854 5854 5854 5855 5855 5855 5856 5856 5858 5859 5859 5861 5864 5865 5867 5870 5873 5874 5876 5879 5881 5884 5887 5890 5893 5897 5902 5907 5911 5915 5914 5914 5913 5914 5915 5914 5915 5916 5917 5917 5918 5919 5922 5922
5851 5851 5851 5851 5851 5851 5851 5851 5853 5853 5852 5853 5855 5855 5858 5860 5864 5866 5869 5871 5873 5876 5880 5883 5885 5887 5894 5898 5908 5907 5912 5917 5910 5907 5910 5911 5913 5912 5914 5914 5915 5917 5918 5920 5922
5847 5847 5847 5847 5846 5846 5846 5845 5845 5846 5845 5846 5847 5848 5848 5853 5856 5858 5863 5866 5868 5872 5875 5876 5878 5887 5892 5893 5898 5901 5907 5913 5906 5904 5908 5913 5910 5910 5911 5911 5913 5915 5916 5918 5921
5844 5843 5843 5843 5842 5841 5841 5841 5839 5838 5837 5837 5838 5838 5840 5843 5846 5849 5853 5857 5862 5864 5868 5871 5878 5882 5882 5887 5892 5897 5904 5910 5910 5901 5905 5908 5910 5910 5909 5910 5910 5912 5914 5916 5919
5840 5840 5839 5839 5839 5837 5835 5834 5831 5829 5826 5827 5828 5828 5828 5831 5834 5838 5843 5848 5851 5857 5861 5864 5872 5873 5876 5880 5887 5895 5900 5903 5901 5902 5908 5906 5911 5907 5906 5907 5909 5909 5911 5913 5916
5836 5835 5834 5834 5833 5832 5830 5827 5824 5822 5822 5819 5814 5814 5815 5817 5819 5825 5830 5835 5841 5848 5849 5857 5864 5865 5868 5874 5880 5888 5895 5899 5901 5901 5905 5905 5908 5910 5903 5903 5904 5907 5907 5909 5912
5832 5831 5830 5829 5828 5827 5824 5821 5819 5816 5811 5807 5802 5800 5802 5803 5806 5809 5818 5823 5829 5833 5838 5846 5853 5858 5864 5869 5873 5880 5886 5891 5891 5898 5900 5905 5910 5914 5907 5902 5900 5902 5904 5906 5909
5828 5827 5826 5824 5823 5820 5818 5816 5812 5809 5804 5802 5795 5792 5792 5795 5792 5796 5803 5810 5815 5821 5828 5836 5840 5848 5854 5860 5864 5869 5878 5885 5889 5890 5893 5902 5905 5911 5901 5897 5899 5899 5901 5904 5906
5824 5822 5820 5818 5817 5815 5812 5810 5807 5803 5798 5794 5789 5786 5787 5786 5786 5787 5790 5796 5803 5809 5820 5826 5828 5835 5844 5848 5857 5861 5871 5878 5883 5888 5893 5896 5895 5899 5898 5896 5895 5895 5897 5900 5903
5819 5817 5815 5813 5811 5809 5807 5804 5801 5796 5793 5787 5784 5782 5784 5785 5780 5781 5784 5788 5796 5799 5806 5817 5821 5830 5834 5839 5847 5856 5856 5871 5881 5886 5890 5894 5894 5894 5889 5892 5893 5894 5893 5897 5899
5814 5812 5810 5807 5805 5802 5801 5799 5794 5790 5786 5782 5779 5777 5776 5778 5776 5778 5783 5781 5783 5787 5797 5803 5813 5821 5827 5829 5834 5842 5858 5861 5866 5874 5881 5888 5888 5890 5888 5889 5888 5890 5892 5894 5897
5810 5807 5805 5802 5800 5798 5796 5792 5788 5784 5780 5777 5773 5770 5768 5768 5768 5772 5777 5767 5771 5774 5778 5787 5798 5809 5820 5814 5825 5833 5841 5851 5862 5867 5874 5881 5885 5889 5883 5885 5884 5887 5889 5892 5894
5806 5803 5800 5797 5795 5792 5789 5786 5783 5777 5774 5770 5766 5763 5760 5757 5758 5762 5764 5755 5759 5768 5771 5782 5790 5799 5810 5814 5817 5827 5833 5842 5849 5856 5864 5873 5881 5884 5881 5879 5877 5883 5881 5888 5892
5802 5799 5796 5792 5789 5784 5782 5779 5776 5771 5768 5764 5760 5756 5753 5751 5750 5753 5755 5754 5752 5758 5763 5768 5776 5787 5797 5807 5808 5810 5820 5832 5840 5850 5856 5864 5872 5866 5871 5865 5868 5871 5879 5883 5888
5798 5794 5791 5787 5783 5780 5776 5773 5768 5766 5760 5756 5750 5748 5745 5744 5742 5743 5746 5745 5747 5751 5757 5762 5771 5779 5789 5799 5805 5804 5809 5819 5829 5837 5847 5854 5865 5866 5864 5864 5865 5867 5873 5878 5882
5793 5790 5785 5781 5777 5774 5771 5767 5763 5758 5754 5748 5744 5739 5736 5735 5734 5734 5736 5737 5740 5742 5747 5753 5759 5767 5775 5785 5795 5800 5800 5806 5814 5825 5835 5848 5855 5862 5858 5855 5851 5860 5866 5870 5875
5787 5784 5780 5776 5771 5767 5764 5761 5757 5752 5748 5742 5738 5734 5731 5727 5724 5725 5725 5727 5732 5734 5739 5743 5747 5756 5765 5773 5780 5787 5795 5799 5804 5814 5825 5836 5845 5854 5852 5836 5839 5851 5857 5864 5868
5781 5778 5773 5770 5765 5761 5758 5754 5751 5746 5742 5737 5734 5730 5726 5722 5719 5716 5716 5718 5722 5726 5732 5737 5743 5749 5758 5766 5772 5775 5783 5793 5798 5805 5814 5822 5833 5842 5830 5833 5836 5843 5851 5856 5859
Wind_Speed
17 17 16 16 16 16 17 17 16 16 15 15 16 15 13 14 12 9 7 11 14 12 14 11 14 10 9 12 12 13 6 9 12 9 5 5 4 6 6 8 8 11 11 12 16
14 15 15 15 16 17 18 17 17 17 17 17 17 16 15 15 14 12 9 12 18 15 17 12 11 10 8 8 12 14 13 15 10 9 6 4 2 3 5 6 8 9 9 12 14
9 10 12 13 14 15 16 15 15 16 17 16 17 16 15 15 16 13 12 14 19 16 16 17 11 8 5 5 15 16 16 12 10 9 2 4 2 0 2 2 6 8 7 12 13
6 7 8 10 12 14 13 13 13 15 15 14 16 15 16 16 18 15 13 14 18 21 18 18 13 6 8 9 13 14 8 8 9 9 5 3 4 3 0 0 3 3 8 10 11
8 8 8 9 11 13 12 12 13 13 14 15 16 16 16 16 15 15 16 15 18 20 23 17 16 18 3 11 7 11 18 15 4 7 4 5 3 6 4 5 2 2 7 8 11
8 9 11 12 13 13 13 13 14 14 15 15 15 16 17 19 17 17 16 18 20 20 23 27 21 17 22 16 9 15 9 15 6 5 2 2 0 6 7 11 8 6 7 9 10
13 13 13 13 13 13 14 16 17 17 18 18 17 17 18 18 20 19 19 19 20 22 24 29 28 21 19 14 17 14 11 9 7 5 4 2 4 6 10 15 15 11 7 9 10
9 11 12 14 15 16 18 19 19 20 21 21 21 21 21 19 20 19 19 21 21 23 25 26 32 25 20 16 16 9 6 5 10 8 7 7 5 1 3 6 12 12 10 9 12
7 8 9 11 12 13 16 19 22 23 24 24 25 26 26 26 24 22 21 21 24 24 24 26 31 34 28 20 14 12 5 17 14 8 9 9 8 6 4 5 9 9 11 11 13
8 9 10 11 13 15 17 18 19 21 23 26 28 29 31 30 27 26 25 24 23 24 27 27 28 29 34 31 19 16 13 13 13 27 18 13 15 12 11 9 10 16 14 14 15
10 11 12 13 14 15 17 19 21 23 26 28 28 32 33 33 31 32 30 29 28 28 27 26 30 29 26 27 21 30 12 18 28 27 18 20 19 19 14 15 11 13 18 17 17
8 9 9 8 8 11 13 17 20 23 27 29 33 34 35 34 36 35 34 34 33 29 29 31 31 22 22 25 27 31 23 18 27 28 17 15 17 16 9 12 11 14 16 19 20
7 6 5 7 9 11 12 18 23 27 29 32 33 37 39 39 38 40 39 37 36 35 32 33 27 22 29 26 25 21 17 18 16 25 19 16 11 17 13 12 13 13 14 17 20
6 4 3 4 12 17 24 26 30 34 33 35 35 34 41 43 43 42 42 42 42 40 36 37 28 32 32 29 26 27 25 25 23 18 7 18 10 17 23 15 15 17 18 19 18
7 3 5 11 17 21 24 25 29 34 34 38 39 34 35 43 48 47 46 46 45 42 44 40 36 37 37 34 31 28 26 24 24 20 16 10 17 13 24 21 19 18 19 19 18
11 9 11 15 20 21 24 26 32 32 31 38 41 35 31 35 45 50 49 50 50 48 47 44 38 40 37 33 33 30 30 25 26 24 25 20 16 13 20 21 24 17 14 17 19
15 15 15 18 19 21 24 27 29 27 34 34 34 29 25 23 36 43 49 52 54 53 52 47 48 42 40 36 36 35 29 29 27 28 26 19 23 19 23 17 25 19 14 15 22
16 15 17 20 22 24 24 25 24 29 34 34 28 24 19 18 22 26 41 47 54 53 50 50 47 49 46 48 39 38 34 32 30 22 22 22 24 26 22 25 21 19 15 11 14
16 17 19 21 23 25 24 25 25 30 33 33 25 17 9 14 20 18 20 31 31 52 48 36 42 38 43 48 46 37 43 34 28 22 23 20 23 22 33 28 23 18 21 15 13
15 17 19 21 22 24 23 23 28 30 32 29 24 23 16 18 17 10 13 24 28 33 40 37 33 37 36 42 49 45 35 36 38 37 31 26 24 17 29 23 26 20 20 17 13
15 17 17 20 22 23 21 25 29 32 30 25 24 23 22 18 18 16 14 28 35 44 44 43 33 27 37 47 44 45 41 38 34 35 33 30 26 24 23 23 29 21 20 17 13
14 17 18 21 22 22 24 24 26 30 29 25 25 23 24 26 25 18 15 23 21 42 49 45 30 29 37 38 35 36 40 39 38 39 35 30 27 23 28 29 35 23 29 20 14
17 19 19 22 22 27 23 24 25 28 29 27 25 26 23 26 26 22 26 24 21 32 37 41 41 28 30 32 35 44 42 40 37 31 33 34 29 21 38 32 39 36 27 24 22
20 20 19 23 24 23 24 23 25 27 28 28 27 28 27 23 27 28 33 32 33 30 29 36 42 38 37 34 28 38 39 41 40 39 34 35 30 27 32 44 40 41 32 29 26
19 19 22 26 26 22 22 23 23 26 28 29 22 22 26 26 26 27 28 35 32 33 32 29 38 37 34 31 33 30 32 46 44 43 39 33 31 36 19 26 45 44 39 36 32
21 22 23 25 27 23 21 22 22 24 24 21 16 13 13 16 23 27 32 36 37 38 36 34 30 36 33 36 32 32 33 33 49 43 40 35 33 30 37 46 46 45 47 40 37
24 25 27 27 28 23 21 22 21 21 21 17 15 8 10 14 20 18 27 31 40 42 37 37 33 27 33 36 35 35 33 29 33 41 39 40 36 29 45 55 53 44 49 46 38
Wind_Direction
212 215 219 221 230 236 244 250 255 257 258 254 259 261 258 257 252 242 206 187 197 203 186 191 173 153 161 180 179 161 160 153 198 169 172 141 121 81 69 61 56 56 72 83 103
206 213 223 226 231 239 246 248 252 253 254 255 257 256 252 251 246 240 216 192 190 201 196 192 189 175 162 176 186 185 181 188 187 182 175 143 111 64 69 66 61 61 78 92 106
202 207 215 223 232 236 241 246 248 252 251 252 250 250 247 244 241 232 222 193 202 205 203 192 173 182 179 163 191 180 178 186 194 177 177 172 158 44 71 62 65 79 74 105 114
205 211 215 221 230 235 237 242 244 247 248 245 246 243 244 239 242 234 227 208 205 208 201 207 205 126 172 186 165 194 182 175 203 186 186 32 191 206 167 44 57 88 102 115 131
226 226 229 230 233 238 245 245 249 246 250 246 242 243 240 239 239 233 228 213 214 208 213 212 204 175 165 177 178 203 199 219 208 200 221 295 248 197 239 225 177 157 133 135 149
243 239 240 239 240 242 248 253 253 256 253 252 248 244 242 241 239 237 229 225 219 210 207 206 203 193 192 183 173 205 222 208 217 169 168 298 254 247 252 229 208 187 164 146 157
251 251 250 250 255 258 256 256 255 255 256 256 255 252 246 244 242 239 234 230 226 220 209 210 206 209 193 181 201 207 211 206 208 240 249 230 293 269 249 231 214 190 174 163 165
256 259 259 261 260 258 257 256 257 256 255 256 256 255 252 245 246 240 237 233 228 227 218 213 211 211 205 187 207 203 212 267 266 246 231 224 223 211 305 257 233 192 179 179 174
260 264 267 266 267 264 262 259 257 256 257 256 256 255 253 252 245 244 242 234 233 230 228 219 216 210 217 220 228 220 250 232 251 243 233 216 223 222 269 281 228 212 197 187 184
271 272 275 276 275 274 273 269 267 264 260 256 253 254 252 253 251 247 245 241 233 231 230 228 227 216 217 223 220 268 266 250 255 245 236 219 246 237 261 269 243 224 220 198 198
279 285 289 288 289 290 288 288 282 280 268 260 255 253 249 251 249 247 243 242 238 232 230 232 233 228 216 216 204 223 213 236 257 256 235 244 252 256 252 238 239 235 227 216 212
284 284 291 303 309 307 308 303 298 291 281 267 261 254 253 247 246 246 244 243 243 242 235 231 232 233 226 218 214 219 212 219 247 264 235 246 251 258 234 228 251 238 226 227 220
276 285 324 335 333 327 325 317 310 300 299 282 273 263 254 249 245 242 239 239 240 239 237 238 237 226 228 223 219 215 222 221 231 256 242 245 258 268 242 236 235 238 238 232 231
265 304 341 322 323 323 325 323 320 316 313 293 290 273 256 250 245 240 237 235 235 236 236 236 228 227 227 223 219 215 226 202 231 245 231 255 242 237 264 237 243 240 237 244 241
274 251 274 305 318 323 328 324 323 323 324 317 305 292 259 243 243 237 235 234 233 232 230 232 225 227 226 223 217 217 209 229 237 234 226 275 232 293 275 239 239 243 243 241 235
281 262 284 298 311 319 322 324 321 323 325 319 314 296 272 243 234 234 230 230 230 228 228 229 227 226 229 229 225 216 201 228 226 233 234 221 227 243 278 270 246 239 234 234 225
289 273 282 293 303 310 315 327 329 341 329 324 310 295 281 260 243 233 229 225 226 226 226 227 226 225 221 225 221 214 214 218 232 228 230 222 231 215 230 224 248 238 239 227 228
292 292 288 294 299 305 313 325 336 334 330 326 311 294 280 267 258 246 230 224 222 223 223 225 225 222 221 224 219 220 211 216 227 229 232 224 225 224 242 230 239 250 243 235 235
294 298 296 293 296 303 314 328 331 326 327 330 317 295 263 280 292 256 251 228 229 222 220 222 230 227 220 226 218 216 220 215 219 230 225 233 235 243 232 240 241 240 250 242 254
307 303 298 300 303 306 307 315 323 328 327 327 317 291 267 254 278 236 242 239 215 208 226 216 223 228 227 227 221 208 225 219 212 219 224 225 231 230 249 241 239 236 241 247 245
323 318 316 308 308 305 312 315 319 322 327 321 309 297 269 255 259 222 221 244 233 207 205 210 206 210 215 225 219 214 207 220 222 222 220 223 224 232 220 232 241 225 235 231 235
332 330 325 316 312 309 310 311 317 321 326 318 301 291 275 264 262 236 234 245 220 222 218 211 202 213 212 221 220 210 220 213 219 218 220 218 224 224 247 242 239 232 232 227 227
319 321 323 322 314 312 309 309 315 322 323 323 300 288 277 266 254 238 235 251 220 221 222 215 210 213 202 215 218 215 211 217 219 218 222 219 208 221 214 205 229 236 232 229 221
316 319 324 322 313 305 308 310 316 323 321 322 303 285 277 266 256 237 227 239 231 225 223 221 215 214 212 217 228 226 219 216 219 218 217 220 213 231 232 240 242 232 234 230 222
308 314 321 322 318 303 307 309 316 324 328 329 315 314 282 271 257 249 241 240 232 229 221 219 220 218 213 210 219 233 234 215 216 219 217 216 216 209 218 230 244 225 230 230 220
312 310 315 322 320 303 304 309 317 323 329 321 312 319 332 312 266 254 253 243 227 227 220 215 218 218 219 224 214 221 222 232 223 220 219 215 216 225 226 235 235 222 223 229 227
307 309 312 316 319 306 301 309 316 322 328 313 289 302 313 306 291 278 251 242 229 228 223 223 219 215 222 222 218 224 214 219 225 223 219 217 211 209 229 228 228 224 219 224 222